Regional Weather Roundup
Issued by NWS Mobile, AL

Home | Current Version | Previous Version | Text Only | Print | Product List | Glossary On
Versions: 1 2 3 4 5 6 7 8 9 10 11 12 13 14 15 16 17 18 19 20 21 22 23 24 25 26 27 28 29 30 31 32 33 34 35 36 37 38 39 40 41 42 43 44 45 46 47 48 49 50
000
ASUS44 KMOB 030910
RWRMOB
REGIONAL WEATHER ROUNDUP
NATIONAL WEATHER SERVICE MOBILE AL
300 AM CST TUE MAR 03 2015

ALZ061>064-031000-
COASTAL ALABAMA


CITY           SKY/WX    TMP DP  RH WIND       PRES   REMARKS
MOBILE REG APT FOG       60 N/A N/A S5        30.16F VSB 1/4
BROOKLEY FIELD CLOUDY    64  63  96 S3        30.17F
GULF SHORES    FOG       62  62 100 CALM      30.16F VSB 1/4

$$

ALZ051>060-031000-
INTERIOR SOUTHWEST AND SOUTH CENTRAL ALABAMA


CITY           SKY/WX    TMP DP  RH WIND       PRES   REMARKS
ANDALUSIA/OPP  FOG       64  60  87 CALM      30.17S VSB 1/4
EVERGREEN      FOG       59  59 100 CALM      30.17F VSB 1/4
FLORALA        FOG       57  56  96 CALM      30.18F VSB 1/4
GREENVILLE     FOG       60  59  96 S3        30.16F VSB 1/4

$$

FLZ001>006-031000-
WESTERN FLORIDA PANHANDLE


CITY           SKY/WX    TMP DP  RH WIND       PRES   REMARKS
CRESTVIEW      FOG       58  58 100 CALM      30.18F VSB 1/4
DESTIN         CLOUDY    60  59  96 SE6       30.17F FOG
DUKE FIELD     FOG       59  58  97 CALM      30.15F VSB 1/2
MARY ESTHER    DRZL/FOG  60  57  91 SE6       30.16S VSB 1/4
MILTON         FOG       64  61  90 CALM      30.16F VSB<1/4
PENSACOLA      FOG       61  61 100 CALM      30.16F VSB 1/4
NAS PENSACOLA  FOG       61  61 100 SE3       30.16S VSB 1/4
VALPARAISO     FOG       59  58  99 S5        30.16F VSB 1/4

$$

...MARINE OBSERVATIONS...

STATION/POSITION TIME  SKY/WX   TEMP    WIND        PRES    VSBY
                                AIR SEA DIR/SP/G
                 (UTC)          (F)     (DEG/KT/KT) (MB)    (MI)
PASCAGOULA       0900            61     150/  5/  6 1020.7F
GRAND BAY        0800            59     110/  4     1023.0S
E DAUPHIN ISLAND 0900            58     120/  5/  5 1020.7F
USCG MOBILE BAY  0900            62      CALM  /  1 1020.1F
STATE DOCKS      0900            61                 1020.9F
MEAHER PARK      0800            64     130/  3     1021.3F
FORT MORGAN      0900            63     160/ 10/ 10 1020.8F
12 S ORANGE BCH  0900            65 64  140/ 10/ 10 1020.6F
WVE H/P(F/S)=  2/ 7

PENSACOLA BAY    0900            63      CALM  /  1 1021.6F
64 S DAUPHIN ISL 0829            70 71  160/ 10/ 12 1021.5F
WVE H/P(F/S)=  2/ 7

115 SE PENSACOLA 0755            65 67  110/  2/  4 1021.8
WVE H/P(F/S)=  1/ 6

MID GULF/42001   0900            77 79  100/ 14/ 17 1019.7F
WVE H/P(F/S)=  3/ 4

EAST GULF/42003  0900            74 77   70/ 12/ 16 1020.2F
WVE H/P(F/S)=  2/ 6


$$

...NEARBY LOCATIONS

CITY           SKY/WX    TMP DP  RH WIND       PRES   REMARKS
GULFPORT       FOG       62  61  96 SE5       30.13F VSB 1/4
BILOXI         FOG       64  64 100 S7        30.13F VSB 3/4
PASCAGOULA     FOG       63  63 100 SE3       30.15F VSB 1/2
HATTIESBURG    FOG       61  60  97 E5        30.13F VSB 1/2
LAUREL         CLOUDY    59  57  94 SE5       30.14F VSB 1/4
MERIDIAN       CLOUDY    52  52 100 CALM      30.14F FOG
MERIDIAN NAS   FOG       51  50  96 E3        30.15F VSB 3/4
MONTGOMERY     FOG       57  57 100 CALM      30.17F VSB 1/4
MAXWELL AFB    FOG       56  56 100 CALM      30.16F VSB 1/2
TROY           FOG       60  59  96 CALM      30.18S VSB 1/2
FORT RUCKER    FOG       57  56  96 CALM      30.16F VSB 1/4
DALEVILLE      FOG       58  57  96 S2        30.16F VSB<1/4
DOTHAN         FOG       57  56  96 CALM      30.20F VSB 1/2

$$

...OTHER SURROUNDING LOCATIONS...

CITY           SKY/WX    TMP DP  RH WIND       PRES   REMARKS
BIRMINGHAM     CLOUDY    52  51  97 CALM      30.19S FOG
TUSCALOOSA     CLOUDY    51  50  96 E3        30.17F FOG
COLUMBUS GA    LGT RAIN  59  58  96 CALM      30.19S FOG
PANAMA CITY    NOT AVBL
TALLAHASSEE    FOG       59  58  96 CALM      30.18S VSB 1/4
BATON ROUGE    FOG       56  55  97 W5        30.12F VSB 1/4
NEW ORLEANS    FOG       66  64  93 S6        30.12F VSB 1/8
SLIDELL        FOG       65  65 100 SE7       30.12F VSB 1/2
JACKSON        FOG       53  52  96 CALM      30.13F VSB 3/4
MCCOMB         FOG       61  60  97 CALM      30.12F VSB 1/4

$$

...SURROUNDING MARINE OBSERVATIONS...

STATION/POSITION TIME  SKY/WX   TEMP    WIND        PRES    VSBY
                                AIR SEA DIR/SP/G
                 (UTC)          (F)     (DEG/KT/KT) (MB)    (MI)
WAVELAND         0900            61     150/  7/  7 1020.2F
PASCAGOULA RGN A 0900            62     130/  3/  6 1020.5F
PASCAGOULA PORT  0800               56                N/A
GRAND ISLE       0900            64     120/  3/  5 1020.7F
SOUTHWEST PASS   0900            67     120/ 10/ 10 1020.2F
PILOT STATION E  0900            59     110/ 11/ 12 1020.6F
SHELL BEACH      0900            64     130/  8/  9 1020.2F
PANAMA CITY      0900            58      CALM  /  1 1021.5F
APALACHICOLA     0900            57        CALM     1021.3F
TYNDALL TOWER C  0900            58     340/  3/  4 1021.6F
S APLCHCLA/42036 0900            63 67   60/  8/ 10 1021.8F
WVE H/P(F/S)=  1/ 7


$$




USA.gov is the U.S. government's official web portal to all federal, state and local government web resources and services.